TimeCDT,TemperatureF,Dew PointF,Humidity,Sea Level PressureIn,VisibilityMPH,Wind Direction,Wind SpeedMPH,Gust SpeedMPH,PrecipitationIn,Events,Conditions,WindDirDegrees,DateUTC
12:15 AM,62.6,62.6,100,29.80,10.0,SE,10.4,-,N/A,,Clear,130,2013-05-31 05:15:00
12:35 AM,64.4,62.6,94,29.80,10.0,ESE,9.2,-,N/A,,Clear,120,2013-05-31 05:35:00
12:55 AM,64.4,62.6,94,29.78,10.0,SE,8.1,-,N/A,,Clear,140,2013-05-31 05:55:00
1:15 AM,64.4,62.6,94,29.78,10.0,SE,6.9,-,N/A,,Clear,130,2013-05-31 06:15:00
1:35 AM,64.4,62.6,94,29.78,10.0,ESE,4.6,-,N/A,,Clear,110,2013-05-31 06:35:00
1:55 AM,62.6,62.6,100,29.78,10.0,Calm,Calm,-,N/A,,Clear,0,2013-05-31 06:55:00
2:15 AM,62.6,62.6,100,29.77,10.0,ESE,4.6,-,N/A,,Clear,110,2013-05-31 07:15:00
2:35 AM,62.6,62.6,100,29.78,10.0,SE,6.9,-,N/A,,Clear,130,2013-05-31 07:35:00
2:55 AM,64.4,62.6,94,29.80,10.0,SSE,8.1,-,N/A,,Clear,150,2013-05-31 07:55:00
3:15 AM,64.4,62.6,94,29.80,10.0,SSE,8.1,-,N/A,,Clear,150,2013-05-31 08:15:00
3:35 AM,64.4,64.4,100,29.81,10.0,SE,10.4,-,N/A,,Clear,130,2013-05-31 08:35:00
3:55 AM,66.2,64.4,94,29.80,10.0,SE,12.7,19.6,N/A,,Mostly Cloudy,130,2013-05-31 08:55:00
4:15 AM,66.2,64.4,94,29.80,10.0,SE,11.5,17.3,N/A,,Overcast,130,2013-05-31 09:15:00
4:35 AM,64.4,64.4,100,29.79,10.0,SE,11.5,-,N/A,,Mostly Cloudy,140,2013-05-31 09:35:00
4:55 AM,64.4,64.4,100,29.79,10.0,SSE,12.7,18.4,N/A,,Clear,150,2013-05-31 09:55:00
5:15 AM,64.4,62.6,94,29.78,10.0,SE,11.5,-,N/A,,Clear,140,2013-05-31 10:15:00
5:35 AM,64.4,62.6,94,29.78,10.0,SE,12.7,-,N/A,,Clear,140,2013-05-31 10:35:00
5:55 AM,64.4,62.6,94,29.77,10.0,SE,10.4,-,N/A,,Clear,140,2013-05-31 10:55:00
6:15 AM,64.4,64.4,100,29.77,10.0,SSE,12.7,18.4,N/A,,Scattered Clouds,150,2013-05-31 11:15:00
6:35 AM,66.2,64.4,94,29.78,10.0,SSE,13.8,20.7,N/A,,Mostly Cloudy,150,2013-05-31 11:35:00
6:55 AM,68.0,64.4,88,29.79,10.0,SSE,15.0,21.9,N/A,,Scattered Clouds,150,2013-05-31 11:55:00
7:15 AM,68.0,64.4,88,29.79,10.0,SSE,13.8,20.7,N/A,,Scattered Clouds,150,2013-05-31 12:15:00
7:35 AM,68.0,64.4,88,29.79,10.0,SSE,13.8,21.9,N/A,,Mostly Cloudy,150,2013-05-31 12:35:00
7:55 AM,68.0,64.4,88,29.80,10.0,SSE,13.8,-,N/A,,Overcast,150,2013-05-31 12:55:00
8:15 AM,69.8,66.2,88,29.80,10.0,SSE,15.0,21.9,N/A,,Overcast,160,2013-05-31 13:15:00
8:35 AM,69.8,66.2,88,29.79,10.0,SSE,12.7,19.6,N/A,,Overcast,160,2013-05-31 13:35:00
8:55 AM,71.6,66.2,83,29.79,10.0,SSE,15.0,23.0,N/A,,Overcast,160,2013-05-31 13:55:00
9:15 AM,71.6,66.2,83,29.80,10.0,South,10.4,21.9,N/A,Rain,Light Rain,180,2013-05-31 14:15:00
9:35 AM,71.6,68.0,88,29.82,10.0,WSW,8.1,-,0.01,Rain,Light Rain,250,2013-05-31 14:35:00
9:55 AM,64.4,62.6,94,29.83,10.0,NW,10.4,-,0.04,Rain,Rain,310,2013-05-31 14:55:00
10:15 AM,62.6,62.6,100,29.83,10.0,West,6.9,-,0.02,Rain,Light Rain,280,2013-05-31 15:15:00
10:35 AM,62.6,62.6,100,29.83,10.0,NW,3.5,-,0.03,,Overcast,310,2013-05-31 15:35:00
10:55 AM,64.4,62.6,94,29.82,10.0,East,4.6,-,0.03,,Overcast,80,2013-05-31 15:55:00
11:15 AM,68.0,66.2,94,29.80,10.0,East,5.8,-,N/A,,Overcast,90,2013-05-31 16:15:00
11:35 AM,69.8,68.0,94,29.80,10.0,ESE,4.6,-,N/A,,Overcast,110,2013-05-31 16:35:00
11:55 AM,73.4,69.8,88,29.80,10.0,South,11.5,16.1,N/A,,Overcast,170,2013-05-31 16:55:00
12:15 PM,77.0,69.8,78,29.79,10.0,SSE,11.5,20.7,N/A,,Overcast,160,2013-05-31 17:15:00
12:35 PM,78.8,69.8,74,29.79,10.0,South,11.5,19.6,N/A,,Overcast,180,2013-05-31 17:35:00
12:55 PM,77.0,69.8,78,29.79,10.0,South,10.4,-,N/A,,Overcast,180,2013-05-31 17:55:00
1:15 PM,78.8,69.8,74,29.80,10.0,South,9.2,18.4,N/A,,Overcast,190,2013-05-31 18:15:00
1:35 PM,78.8,69.8,74,29.79,10.0,South,10.4,17.3,N/A,,Overcast,180,2013-05-31 18:35:00
1:55 PM,80.6,69.8,70,29.78,10.0,South,11.5,17.3,N/A,,Overcast,170,2013-05-31 18:55:00
2:15 PM,80.6,71.6,74,29.77,10.0,South,12.7,19.6,N/A,,Mostly Cloudy,180,2013-05-31 19:15:00
2:35 PM,80.6,71.6,74,29.77,10.0,South,13.8,18.4,N/A,,Mostly Cloudy,170,2013-05-31 19:35:00
2:55 PM,82.4,71.6,70,29.77,10.0,South,11.5,24.2,N/A,,Scattered Clouds,170,2013-05-31 19:55:00
3:15 PM,82.4,69.8,66,29.77,10.0,SSW,13.8,21.9,N/A,,Scattered Clouds,200,2013-05-31 20:15:00
3:35 PM,82.4,71.6,70,29.76,10.0,South,13.8,-,N/A,,Mostly Cloudy,170,2013-05-31 20:35:00
3:55 PM,82.4,69.8,66,29.75,10.0,South,12.7,21.9,N/A,,Mostly Cloudy,170,2013-05-31 20:55:00
4:15 PM,82.4,68.0,62,29.75,10.0,South,18.4,28.8,N/A,,Overcast,170,2013-05-31 21:15:00
4:35 PM,82.4,68.0,62,29.75,10.0,South,13.8,26.5,N/A,,Scattered Clouds,190,2013-05-31 21:35:00
4:55 PM,82.4,69.8,66,29.73,10.0,South,8.1,23.0,N/A,,Scattered Clouds,170,2013-05-31 21:55:00
5:15 PM,80.6,69.8,70,29.74,10.0,South,15.0,-,N/A,,Mostly Cloudy,170,2013-05-31 22:15:00
5:35 PM,78.8,69.8,74,29.73,10.0,South,9.2,-,N/A,,Overcast,170,2013-05-31 22:35:00
5:55 PM,80.6,69.8,70,29.70,10.0,SSE,12.7,17.3,N/A,Thunderstorm,Mostly Cloudy,150,2013-05-31 22:55:00
6:15 PM,80.6,69.8,70,29.72,10.0,South,5.8,-,N/A,,Mostly Cloudy,170,2013-05-31 23:15:00
6:35 PM,78.8,69.8,74,29.74,10.0,SSW,4.6,-,N/A,,Overcast,200,2013-05-31 23:35:00
6:55 PM,68.0,62.6,83,29.74,10.0,NW,16.1,26.5,N/A,Thunderstorm,Overcast,320,2013-05-31 23:55:00
7:15 PM,66.2,60.8,83,29.76,10.0,NNE,6.9,-,N/A,,Overcast,20,2013-06-01 00:15:00
7:35 PM,64.4,60.8,88,29.76,10.0,ENE,3.5,-,N/A,,Overcast,60,2013-06-01 00:35:00
7:55 PM,64.4,60.8,88,29.78,10.0,Calm,Calm,-,N/A,,Overcast,0,2013-06-01 00:55:00
8:15 PM,64.4,62.6,94,29.78,10.0,ENE,5.8,-,N/A,Thunderstorm,Overcast,70,2013-06-01 01:15:00
8:35 PM,64.4,62.6,94,29.79,10.0,Calm,Calm,-,0.01,Rain-Thunderstorm,Heavy Thunderstorms and Rain,0,2013-06-01 01:35:00
8:55 PM,64.4,62.6,94,29.79,2.5,North,4.6,-,0.20,Rain-Thunderstorm,Heavy Thunderstorms and Rain,350,2013-06-01 01:55:00
9:15 PM,62.6,62.6,100,29.82,5.0,East,5.8,-,0.07,Rain-Thunderstorm,Thunderstorms and Rain,80,2013-06-01 02:15:00
9:35 PM,62.6,62.6,100,29.87,7.0,South,4.6,-,0.13,Rain-Thunderstorm,Heavy Thunderstorms and Rain,190,2013-06-01 02:35:00
9:55 PM,64.4,62.6,94,29.87,1.8,West,8.1,-,0.16,Rain-Thunderstorm,Thunderstorms and Rain,270,2013-06-01 02:55:00
10:15 PM,62.6,62.6,100,29.82,7.0,East,6.9,-,0.03,Rain-Thunderstorm,Thunderstorms and Rain,90,2013-06-01 03:15:00
10:35 PM,62.6,62.6,100,29.86,7.0,SE,6.9,-,0.05,Rain-Thunderstorm,Thunderstorms and Rain,130,2013-06-01 03:35:00
10:55 PM,62.6,62.6,100,29.84,10.0,ESE,8.1,-,0.07,Rain-Thunderstorm,Light Thunderstorms and Rain,110,2013-06-01 03:55:00
11:15 PM,62.6,62.6,100,29.86,10.0,WSW,6.9,-,0.01,Rain-Thunderstorm,Light Thunderstorms and Rain,240,2013-06-01 04:15:00
11:35 PM,64.4,62.6,94,29.85,7.0,Calm,Calm,-,0.05,Rain-Thunderstorm,Heavy Thunderstorms and Rain,0,2013-06-01 04:35:00
11:55 PM,64.4,62.6,94,29.83,10.0,SE,6.9,-,0.07,Rain-Thunderstorm,Light Thunderstorms and Rain,140,2013-06-01 04:55:00